Regional Weather Roundup
Issued by NWS

Home | Current Version | Previous Version | Graphics & Text | Print | Product List | Glossary On
Versions: 1 2 3 4 5 6 7 8 9 10 11 12 13 14 15 16 17 18 19 20 21 22 23 24 25 26 27 28 29 30 31 32 33 34 35 36 37 38 39 40 41 42 43 44 45 46 47 48 49 50
000
ASUS43 KMKX 312100
RWRWI

WISCONSIN REGIONAL WEATHER ROUNDUP
NATIONAL WEATHER SERVICE MILWAUKEE/SULLIVAN WI
400 PM CDT FRI JUL 31 2015

NOTE: "FAIR" INDICATES FEW OR NO CLOUDS BELOW 12,000 FEET WITH NO
SIGNIFICANT WEATHER AND/OR OBSTRUCTIONS TO VISIBILITY.

WIZ001-002-006>008-014>016-023>028-312200-
NORTHWEST WISCONSIN

CITY           SKY/WX    TMP DP  RH WIND       PRES   REMARKS
SUPERIOR ARPT  MOSUNNY   78  54  43 NW20      29.92F
ASHLAND        LGT RAIN  69  56  62 W12G32    29.94S
HAYWARD        SUNNY     77  51  40 MISG      29.96F
SIREN          MOSUNNY   79  50  36 NW15G21   29.98F
CUMBERLAND     MOSUNNY   75  50  41 W14G22    29.99F
RICE LAKE      MOSUNNY   75  51  42 W13G22    30.00F
CHETEK         MOSUNNY   79  54  42 MISG      29.99F
LADYSMITH      MOSUNNY   78  52  40 NW14G20   29.98F
EAU CLAIRE     MOSUNNY   79  50  36 W14       29.98F
MENOMONIE      SUNNY     79  47  32 NW16      30.00F
NEW RICHMOND   MOSUNNY   78  50  37 NW14G21   30.02S
OSCEOLA        MOSUNNY   79  49  34 W18       30.03F
$$

WIZ003>005-009-010-017-018-312200-
NORTH CENTRAL WISCONSIN

CITY           SKY/WX    TMP DP  RH WIND       PRES   REMARKS
MANITOWISH WTR MOSUNNY   74  53  47 NW13G23   29.94S
ARBOR VITAE    MOSUNNY   76  52  42 NW16G24   29.94S
WOODRUFF       MOSUNNY   76  52  42 NW16G24   29.94S
RHINELANDER    MOSUNNY   76  49  38 NW12G24   29.94S
EAGLE RIVER    MOSUNNY   74  47  38 NW18      29.92F
LAND O LAKES   MOSUNNY   74  47  37 NW16G29   29.94S
PHILLIPS       CLOUDY    76  53  45 W8G16     29.95F
TOMAHAWK       MOSUNNY   75  50  41 W14G21    29.95S
MEDFORD        MOSUNNY   75  52  45 NW16G23   29.97F
MERRILL        NOT AVBL
$$

WIZ029-030-035-036-043>047-312200-
CENTRAL WISCONSIN

CITY           SKY/WX    TMP DP  RH WIND       PRES   REMARKS
WAUSAU         MOSUNNY   79  48  33 NW16      29.93S
MOSINEE        MOSUNNY   77  50  38 NW6G24    29.96S
MARSHFIELD     MOSUNNY   79  49  34 NW20G31   29.97F
STEVENS POINT  MOSUNNY   77  51  40 W15G22    29.95F
WAUPACA        MOSUNNY   81  50  33 W14G20    29.93S HX  80
WAUTOMA        NOT AVBL
WISC RAPIDS    MOSUNNY   78  48  34 NW17G29   29.97F
CAMP DOUGLAS   NOT AVBL
$$

WIZ011>013-019>022-031-037>040-048>050-312200-
NORTHEAST WISCONSIN

CITY           SKY/WX    TMP DP  RH WIND       PRES   REMARKS
ANTIGO         MOSUNNY   77  50  38 NW16G28   29.93S
SHAWANO        MOSUNNY   82  50  32 W14G22    29.90S HX  80
OCONTO         PTSUNNY   80  53  39 W10G18    29.86S HX  80
STURGEON BAY   PTSUNNY   81  54  39 NW15G21   29.89R HX  80
GREEN BAY      MOSUNNY   79  52  38 NW15G24   29.88F
MANITOWOC      NOT AVBL
APPLETON       PTSUNNY   81  48  32 W16G25    29.92F HX  80
CLINTONVILLE   MOSUNNY   79  46  31 W16G22    29.91S
OSHKOSH        MOSUNNY   81  51  35 W17G28    29.91F HX  80
$$

WIZ032>034-041-042-053>061-312200-
SOUTHWEST WISCONSIN

CITY           SKY/WX    TMP DP  RH WIND       PRES   REMARKS
LA CROSSE      SUNNY     83  49  30 NW21      29.99F HX  81
SPARTA         MOSUNNY   82  45  26 NW14G28   30.00F HX  80
VIROQUA        MOSUNNY   78  51  37 W15G25    30.02F
BOSCOBEL       SUNNY     85  50  29 NW18G24   30.00F HX  83
PRAIRIE DU CHI SUNNY     84  44  25 NW13G25   30.01S HX  81
PLATTEVILLE    SUNNY     82  53  36 NW13      30.01F HX  81
$$

WIZ056-057-062-063-064-067-068-312200-
SOUTH CENTRAL WISCONSIN

CITY           SKY/WX    TMP DP  RH WIND       PRES   REMARKS
REEDSBURG      MOSUNNY   80  50  34 NW9G20    29.98S HX  80
BARABOO/DELLS  MOSUNNY   81  43  26 N16G28    29.97F
LONE ROCK      NOT AVBL
MINERAL POINT  SUNNY     81  45  28 NW15G21   30.01S
MADISON        MOSUNNY   81  51  35 NW10G20   29.96F HX  80
MIDDLETON      SUNNY     83  44  25 NW15G22   29.98F HX  81
WATERTOWN      MOSUNNY   82  54  38 NW14G21   29.95F HX  81
MONROE         SUNNY     81  50  34 NW12G25   29.99F HX  80
JANESVILLE     SUNNY     84  46  26 NW17G23   29.96F HX  82
$$

WIZ051-052-058>065-066-070>072-312200-
SOUTHEAST WISCONSIN

CITY           SKY/WX    TMP DP  RH WIND       PRES   REMARKS
MILWAUKEE      MOSUNNY   83  47  28 NW22G29   29.93F HX  81
WAUKESHA       MOSUNNY   81  48  32 W17G25    29.95F HX  80
MILWAUKEE/TIMM MOSUNNY   82  45  26 W18G26    29.94S HX  80
RACINE         MOSUNNY   83  48  29 NW14G25   29.94F HX  81
BURLINGTON     SUNNY     82  45  27 W16G25    29.95F HX  80
KENOSHA        SUNNY     82  48  30 NW21G31   29.94F HX  81
FOND DU LAC    MOSUNNY   82  51  34 W18G26    29.93F HX  81
SHEBOYGAN      SUNNY     80  51  36 NW15G26   29.90F HX  80
WEST BEND      MOSUNNY   81  45  28 W14G23    29.93F
JUNEAU         SUNNY     79  51  37 W15G21    29.95F
$$

LSZ147-162-312200-
LAKE SUPERIOR

STATION/POSITION TIME  TEMP    WIND        PRES    WAVE
                       AIR SEA DIR/SP/G            HT/PER
                 (UTC) (F)     (DEG/KT/KT) (MB)    (FT/S)
W MID LAKE BUOY  1950   58 54  260/ 12/ 16 1011.7F   2/ 4
DEVILS ISLAND    2000   61     260/ 13/ 16 1013.2R
PORT WING        2020   69     230/ 10/ 23 1013.5S
SAXON HARBOR     2040   72                 1013.2S
$$

LMZ867-665-643>646-312200-
LAKE MICHIGAN

STATION/POSITION TIME  TEMP    WIND        PRES    WAVE
                       AIR SEA DIR/SP/G            HT/PER
                 (UTC) (F)     (DEG/KT/KT) (MB)    (FT/S)
CHAMBERS ISLAND  2000   76     300/  8/ 16 1010.8R
S GREEN BAY BUOY 2030   74 71  280/ 12/ 14 1012.7F
N MID LAKE BUOY  1950   71 69  270/ 10/ 12 1009.8F   1/ 4
NORTHPORT PIER   2000   73     320/ 15/ 19 1010.5S
SISTER BAY       2044   75     330/ 20/ 23   N/A
ALGOMA LAKESHORE 2012          310/ 12/ 25   N/A
KEWAUNEE LAKESHO 2000   78     320/  9/ 16 1011.2F
SHEBOYGAN LAKESH 2000   79     290/ 20/ 26 1012.7F
PORT WASHINGTON  2000   83     290/  9/ 21 1013.5S
ATWATER BUOY     2000   76 65  300/ 16/ 23 1014.8F
MILWAUKEE LAKESH 2000   80     300/ 13/ 22   N/A
KENOSHA   LAKESH 2000   82     270/ 18/ 27 1012.9F
$$

TC  - TEMPERATURE IN CELSIUS
VSB - VISIBILITY IN STATUTE MILES
WCI - WIND CHILL INDEX
HX  - HEAT INDEX




USA.gov is the U.S. government's official web portal to all federal, state and local government web resources and services.